Year,Month,Day,Hour,Minute,Value (Times are PST for temperature in C)
2010,05,07,00,00,6.80
2010,05,07,00,01,6.80
2010,05,07,00,02,6.70
2010,05,07,00,03,6.70
2010,05,07,00,04,6.70
2010,05,07,00,05,6.70
2010,05,07,00,06,6.60
2010,05,07,00,07,6.60
2010,05,07,00,08,6.60
2010,05,07,00,09,6.60
2010,05,07,00,10,6.60
2010,05,07,00,11,6.60
2010,05,07,00,12,6.60
2010,05,07,00,13,6.60
2010,05,07,00,14,6.60
2010,05,07,00,15,6.50
2010,05,07,00,16,6.50
2010,05,07,00,17,6.50
2010,05,07,00,18,6.40
2010,05,07,00,19,6.40
2010,05,07,00,20,6.40
2010,05,07,00,21,6.40
2010,05,07,00,22,6.40
2010,05,07,00,23,6.40
2010,05,07,00,24,6.40
2010,05,07,00,25,6.40
2010,05,07,00,26,6.30
2010,05,07,00,27,6.30
2010,05,07,00,28,6.30
2010,05,07,00,29,6.30
2010,05,07,00,30,6.30
2010,05,07,00,31,6.20
2010,05,07,00,32,6.20
2010,05,07,00,33,6.20
2010,05,07,00,34,6.20
2010,05,07,00,35,6.20
2010,05,07,00,36,6.10
2010,05,07,00,37,6.10
2010,05,07,00,38,6.10
2010,05,07,00,39,6.00
2010,05,07,00,40,6.00
2010,05,07,00,41,6.00
2010,05,07,00,42,6.00
2010,05,07,00,43,5.90
2010,05,07,00,44,5.90
2010,05,07,00,45,5.90
2010,05,07,00,46,5.90
2010,05,07,00,47,5.90
2010,05,07,00,48,5.90
2010,05,07,00,49,5.80
2010,05,07,00,50,5.80
2010,05,07,00,51,5.80
2010,05,07,00,52,5.80
2010,05,07,00,53,5.80
2010,05,07,00,54,5.80
2010,05,07,00,55,5.80
2010,05,07,00,56,5.80
2010,05,07,00,57,5.80
2010,05,07,00,58,5.80
2010,05,07,00,59,5.80
2010,05,07,01,00,5.80
2010,05,07,01,01,5.80
2010,05,07,01,02,5.80
2010,05,07,01,03,5.80
2010,05,07,01,04,5.70
2010,05,07,01,05,5.70
2010,05,07,01,06,5.70
2010,05,07,01,07,5.70
2010,05,07,01,08,5.70
2010,05,07,01,09,5.60
2010,05,07,01,10,5.60
2010,05,07,01,11,5.60
2010,05,07,01,12,5.60
2010,05,07,01,13,5.60
2010,05,07,01,14,5.60
2010,05,07,01,15,5.60
2010,05,07,01,16,5.60
2010,05,07,01,17,5.60
2010,05,07,01,18,5.60
2010,05,07,01,19,5.60
2010,05,07,01,20,5.50
2010,05,07,01,21,5.50
2010,05,07,01,22,5.50
2010,05,07,01,23,5.40
2010,05,07,01,24,5.40
2010,05,07,01,25,5.40
2010,05,07,01,26,5.40
2010,05,07,01,27,5.40
2010,05,07,01,28,5.30
2010,05,07,01,29,5.30
2010,05,07,01,30,5.30
2010,05,07,01,31,5.30
2010,05,07,01,32,5.30
2010,05,07,01,33,5.30
2010,05,07,01,34,5.30
2010,05,07,01,35,5.20
2010,05,07,01,36,5.20
2010,05,07,01,37,5.20
2010,05,07,01,38,5.20
2010,05,07,01,39,5.20
2010,05,07,01,40,5.20
2010,05,07,01,41,5.20
2010,05,07,01,42,5.20
2010,05,07,01,43,5.20
2010,05,07,01,44,5.10
2010,05,07,01,45,5.10
2010,05,07,01,46,5.10
2010,05,07,01,47,5.00
2010,05,07,01,48,5.00
2010,05,07,01,49,5.00
2010,05,07,01,50,4.90
2010,05,07,01,51,4.90
2010,05,07,01,52,4.90
2010,05,07,01,53,4.90
2010,05,07,01,54,4.80
2010,05,07,01,55,4.80
2010,05,07,01,56,4.80
2010,05,07,01,57,4.80
2010,05,07,01,58,4.80
2010,05,07,01,59,4.80
2010,05,07,02,00,4.80
2010,05,07,02,01,4.80
2010,05,07,02,02,4.80
2010,05,07,02,03,4.80
2010,05,07,02,04,4.80
2010,05,07,02,05,4.80
2010,05,07,02,06,4.80
2010,05,07,02,07,4.80
2010,05,07,02,08,4.70
2010,05,07,02,09,4.70
2010,05,07,02,10,4.70
2010,05,07,02,11,4.70
2010,05,07,02,12,4.70
2010,05,07,02,13,4.70
2010,05,07,02,14,4.70
2010,05,07,02,15,4.70
2010,05,07,02,16,4.60
2010,05,07,02,17,4.60
2010,05,07,02,18,4.60
2010,05,07,02,19,4.60
2010,05,07,02,20,4.60
2010,05,07,02,21,4.60
2010,05,07,02,22,4.60
2010,05,07,02,23,4.60
2010,05,07,02,24,4.60
2010,05,07,02,25,4.60
2010,05,07,02,26,4.60
2010,05,07,02,27,4.50
2010,05,07,02,28,4.50
2010,05,07,02,29,4.50
2010,05,07,02,30,4.50
2010,05,07,02,31,4.50
2010,05,07,02,32,4.50
2010,05,07,02,33,4.40
2010,05,07,02,34,4.40
2010,05,07,02,35,4.40
2010,05,07,02,36,4.40
2010,05,07,02,37,4.40
2010,05,07,02,38,4.30
2010,05,07,02,39,4.30
2010,05,07,02,40,4.30
2010,05,07,02,41,4.30
2010,05,07,02,42,4.30
2010,05,07,02,43,4.30
2010,05,07,02,44,4.30
2010,05,07,02,45,4.30
2010,05,07,02,46,4.30
2010,05,07,02,47,4.30
2010,05,07,02,48,4.30
2010,05,07,02,49,4.30
2010,05,07,02,50,4.20
2010,05,07,02,51,4.20
2010,05,07,02,52,4.20
2010,05,07,02,53,4.20
2010,05,07,02,54,4.20
2010,05,07,02,55,4.20
2010,05,07,02,56,4.20
2010,05,07,02,57,4.30
2010,05,07,02,58,4.30
2010,05,07,02,59,4.30
2010,05,07,03,00,4.30
2010,05,07,03,01,4.30
2010,05,07,03,02,4.30
2010,05,07,03,03,4.30
2010,05,07,03,04,4.30
2010,05,07,03,05,4.30
2010,05,07,03,06,4.30
2010,05,07,03,07,4.30
2010,05,07,03,08,4.30
2010,05,07,03,09,4.30
2010,05,07,03,10,4.30
2010,05,07,03,11,4.30
2010,05,07,03,12,4.30
2010,05,07,03,13,4.20
2010,05,07,03,14,4.20
2010,05,07,03,15,4.20
2010,05,07,03,16,4.20
2010,05,07,03,17,4.20
2010,05,07,03,18,4.20
2010,05,07,03,19,4.20
2010,05,07,03,20,4.20
2010,05,07,03,21,4.20
2010,05,07,03,22,4.20
2010,05,07,03,23,4.30
2010,05,07,03,24,4.30
2010,05,07,03,25,4.30
2010,05,07,03,26,4.20
2010,05,07,03,27,4.30
2010,05,07,03,28,4.20
2010,05,07,03,29,4.20
2010,05,07,03,30,4.10
2010,05,07,03,31,4.10
2010,05,07,03,32,4.00
2010,05,07,03,33,4.00
2010,05,07,03,34,3.90
2010,05,07,03,35,3.90
2010,05,07,03,36,3.90
2010,05,07,03,37,3.80
2010,05,07,03,38,3.80
2010,05,07,03,39,3.80
2010,05,07,03,40,3.70
2010,05,07,03,41,3.70
2010,05,07,03,42,3.70
2010,05,07,03,43,3.70
2010,05,07,03,44,3.70
2010,05,07,03,45,3.70
2010,05,07,03,46,3.70
2010,05,07,03,47,3.70
2010,05,07,03,48,3.70
2010,05,07,03,49,3.60
2010,05,07,03,50,3.60
2010,05,07,03,51,3.60
2010,05,07,03,52,3.60
2010,05,07,03,53,3.60
2010,05,07,03,54,3.60
2010,05,07,03,55,3.50
2010,05,07,03,56,3.60
2010,05,07,03,57,3.50
2010,05,07,03,58,3.50
2010,05,07,03,59,3.50
2010,05,07,04,00,3.50
2010,05,07,04,01,3.50
2010,05,07,04,02,3.50
2010,05,07,04,03,3.50
2010,05,07,04,04,3.50
2010,05,07,04,05,3.40
2010,05,07,04,06,3.40
2010,05,07,04,07,3.40
2010,05,07,04,08,3.40
2010,05,07,04,09,3.40
2010,05,07,04,10,3.40
2010,05,07,04,11,3.40
2010,05,07,04,12,3.40
2010,05,07,04,13,3.40
2010,05,07,04,14,3.40
2010,05,07,04,15,3.40
2010,05,07,04,16,3.40
2010,05,07,04,17,3.40
2010,05,07,04,18,3.40
2010,05,07,04,19,3.40
2010,05,07,04,20,3.40
2010,05,07,04,21,3.50
2010,05,07,04,22,3.40
2010,05,07,04,23,3.40
2010,05,07,04,24,3.40
2010,05,07,04,25,3.40
2010,05,07,04,26,3.40
2010,05,07,04,27,3.40
2010,05,07,04,28,3.40
2010,05,07,04,29,3.40
2010,05,07,04,30,3.40
2010,05,07,04,31,3.40
2010,05,07,04,32,3.40
2010,05,07,04,33,3.40
2010,05,07,04,34,3.40
2010,05,07,04,35,3.50
2010,05,07,04,36,3.50
2010,05,07,04,37,3.50
2010,05,07,04,38,3.50
2010,05,07,04,39,3.50
2010,05,07,04,40,3.50
2010,05,07,04,41,3.50
2010,05,07,04,42,3.50
2010,05,07,04,43,3.50
2010,05,07,04,44,3.50
2010,05,07,04,45,3.50
2010,05,07,04,46,3.50
2010,05,07,04,47,3.50
2010,05,07,04,48,3.50
2010,05,07,04,49,3.50
2010,05,07,04,50,3.50
2010,05,07,04,51,3.60
2010,05,07,04,52,3.60
2010,05,07,04,53,3.50
2010,05,07,04,54,3.50
2010,05,07,04,55,3.50
2010,05,07,04,56,3.50
2010,05,07,04,57,3.50
2010,05,07,04,58,3.40
2010,05,07,04,59,3.40
2010,05,07,05,00,3.40
2010,05,07,05,01,3.40
2010,05,07,05,02,3.40
2010,05,07,05,03,3.40
2010,05,07,05,04,3.40
2010,05,07,05,05,3.40
2010,05,07,05,06,3.40
2010,05,07,05,07,3.30
2010,05,07,05,08,3.30
2010,05,07,05,09,3.30
2010,05,07,05,10,3.20
2010,05,07,05,11,3.20
2010,05,07,05,12,3.20
2010,05,07,05,13,3.10
2010,05,07,05,14,3.10
2010,05,07,05,15,3.10
2010,05,07,05,16,3.10
2010,05,07,05,17,3.00
2010,05,07,05,18,3.00
2010,05,07,05,19,3.00
2010,05,07,05,20,2.90
2010,05,07,05,21,2.90
2010,05,07,05,22,2.90
2010,05,07,05,23,2.90
2010,05,07,05,24,2.90
2010,05,07,05,25,2.80
2010,05,07,05,26,2.80
2010,05,07,05,27,2.80
2010,05,07,05,28,2.80
2010,05,07,05,29,2.80
2010,05,07,05,30,2.80
2010,05,07,05,31,2.80
2010,05,07,05,32,2.80
2010,05,07,05,33,2.80
2010,05,07,05,34,2.80
2010,05,07,05,35,2.70
2010,05,07,05,36,2.70
2010,05,07,05,37,2.70
2010,05,07,05,38,2.70
2010,05,07,05,39,2.70
2010,05,07,05,40,2.70
2010,05,07,05,41,2.70
2010,05,07,05,42,2.80
2010,05,07,05,43,2.80
2010,05,07,05,44,2.90
2010,05,07,05,45,2.90
2010,05,07,05,46,2.90
2010,05,07,05,47,3.00
2010,05,07,05,48,3.00
2010,05,07,05,49,3.00
2010,05,07,05,50,3.00
2010,05,07,05,51,3.00
2010,05,07,05,52,3.00
2010,05,07,05,53,3.00
2010,05,07,05,54,2.90
2010,05,07,05,55,2.90
2010,05,07,05,56,2.90
2010,05,07,05,57,2.90
2010,05,07,05,58,2.90
2010,05,07,05,59,2.90
2010,05,07,06,00,2.90
2010,05,07,06,01,2.90
2010,05,07,06,02,2.90
2010,05,07,06,03,2.80
2010,05,07,06,04,2.80
2010,05,07,06,05,2.80
2010,05,07,06,06,2.80
2010,05,07,06,07,2.90
2010,05,07,06,08,2.90
2010,05,07,06,09,2.90
2010,05,07,06,10,2.90
2010,05,07,06,11,3.00
2010,05,07,06,12,3.10
2010,05,07,06,13,3.10
2010,05,07,06,14,3.20
2010,05,07,06,15,3.30
2010,05,07,06,16,3.30
2010,05,07,06,17,3.40
2010,05,07,06,18,3.40
2010,05,07,06,19,3.50
2010,05,07,06,20,3.60
2010,05,07,06,21,3.60
2010,05,07,06,22,3.70
2010,05,07,06,23,3.80
2010,05,07,06,24,3.80
2010,05,07,06,25,3.90
2010,05,07,06,26,4.00
2010,05,07,06,27,4.10
2010,05,07,06,28,4.20
2010,05,07,06,29,4.30
2010,05,07,06,30,4.40
2010,05,07,06,31,4.50
2010,05,07,06,32,4.60
2010,05,07,06,33,4.60
2010,05,07,06,34,4.60
2010,05,07,06,35,4.60
2010,05,07,06,36,4.60
2010,05,07,06,37,4.70
2010,05,07,06,38,4.70
2010,05,07,06,39,4.70
2010,05,07,06,40,4.80
2010,05,07,06,41,4.90
2010,05,07,06,42,5.00
2010,05,07,06,43,5.10
2010,05,07,06,44,5.20
2010,05,07,06,45,5.20
2010,05,07,06,46,5.30
2010,05,07,06,47,5.30
2010,05,07,06,48,5.40
2010,05,07,06,49,5.50
2010,05,07,06,50,5.50
2010,05,07,06,51,5.60
2010,05,07,06,52,5.70
2010,05,07,06,53,5.70
2010,05,07,06,54,5.80
2010,05,07,06,55,5.90
2010,05,07,06,56,6.00
2010,05,07,06,57,6.20
2010,05,07,06,58,6.20
2010,05,07,06,59,6.30
2010,05,07,07,00,6.40
2010,05,07,07,01,6.50
2010,05,07,07,02,6.60
2010,05,07,07,03,6.60
2010,05,07,07,04,6.70
2010,05,07,07,05,6.70
2010,05,07,07,06,6.80
2010,05,07,07,07,6.80
2010,05,07,07,08,6.90
2010,05,07,07,09,6.90
2010,05,07,07,10,6.90
2010,05,07,07,11,7.00
2010,05,07,07,12,7.10
2010,05,07,07,13,7.10
2010,05,07,07,14,7.20
2010,05,07,07,15,7.30
2010,05,07,07,16,7.30
2010,05,07,07,17,7.40
2010,05,07,07,18,7.40
2010,05,07,07,19,7.40
2010,05,07,07,20,7.50
2010,05,07,07,21,7.50
2010,05,07,07,22,7.60
2010,05,07,07,23,7.60
2010,05,07,07,24,7.70
2010,05,07,07,25,7.70
2010,05,07,07,26,7.80
2010,05,07,07,27,7.80
2010,05,07,07,28,7.90
2010,05,07,07,29,8.00
2010,05,07,07,30,8.00
2010,05,07,07,31,8.10
2010,05,07,07,32,8.20
2010,05,07,07,33,8.20
2010,05,07,07,34,8.30
2010,05,07,07,35,8.40
2010,05,07,07,36,8.40
2010,05,07,07,37,8.50
2010,05,07,07,38,8.60
2010,05,07,07,39,8.70
2010,05,07,07,40,8.70
2010,05,07,07,41,8.80
2010,05,07,07,42,8.80
2010,05,07,07,43,8.90
2010,05,07,07,44,8.90
2010,05,07,07,45,8.90
2010,05,07,07,46,9.00
2010,05,07,07,47,9.00
2010,05,07,07,48,9.10
2010,05,07,07,49,9.10
2010,05,07,07,50,9.10
2010,05,07,07,51,9.20
2010,05,07,07,52,9.20
2010,05,07,07,53,9.20
2010,05,07,07,54,9.20
2010,05,07,07,55,9.30
2010,05,07,07,56,9.30
2010,05,07,07,57,9.30
2010,05,07,07,58,9.30
2010,05,07,07,59,9.30
2010,05,07,08,00,9.30
2010,05,07,08,01,9.30
2010,05,07,08,02,9.30
2010,05,07,08,03,9.30
2010,05,07,08,04,9.40
2010,05,07,08,05,9.40
2010,05,07,08,06,9.40
2010,05,07,08,07,9.40
2010,05,07,08,08,9.40
2010,05,07,08,09,9.40
2010,05,07,08,10,9.40
2010,05,07,08,11,9.40
2010,05,07,08,12,9.40
2010,05,07,08,13,9.40
2010,05,07,08,14,9.40
2010,05,07,08,15,9.40
2010,05,07,08,16,9.40
2010,05,07,08,17,9.40
2010,05,07,08,18,9.40
2010,05,07,08,19,9.40
2010,05,07,08,20,9.50
2010,05,07,08,21,9.50
2010,05,07,08,22,9.50
2010,05,07,08,23,9.60
2010,05,07,08,24,9.60
2010,05,07,08,25,9.60
2010,05,07,08,26,9.60
2010,05,07,08,27,9.60
2010,05,07,08,28,9.60
2010,05,07,08,29,9.60
2010,05,07,08,30,9.70
2010,05,07,08,31,9.70
2010,05,07,08,32,9.70
2010,05,07,08,33,9.70
2010,05,07,08,34,9.70
2010,05,07,08,35,9.70
2010,05,07,08,36,9.70
2010,05,07,08,37,9.70
2010,05,07,08,38,9.70
2010,05,07,08,39,9.80
2010,05,07,08,40,9.80
2010,05,07,08,41,9.80
2010,05,07,08,42,9.80
2010,05,07,08,43,9.80
2010,05,07,08,44,9.80
2010,05,07,08,45,9.90
2010,05,07,08,46,9.90
2010,05,07,08,47,10.00
2010,05,07,08,48,10.00
2010,05,07,08,49,10.10
2010,05,07,08,50,10.10
2010,05,07,08,51,10.20
2010,05,07,08,52,10.20
2010,05,07,08,53,10.20
2010,05,07,08,54,10.30
2010,05,07,08,55,10.30
2010,05,07,08,56,10.20
2010,05,07,08,57,10.10
2010,05,07,08,58,10.10
2010,05,07,08,59,10.20
2010,05,07,09,00,10.20
2010,05,07,09,01,10.20
2010,05,07,09,02,10.20
2010,05,07,09,03,10.20
2010,05,07,09,04,10.20
2010,05,07,09,05,10.20
2010,05,07,09,06,10.20
2010,05,07,09,07,10.20
2010,05,07,09,08,10.20
2010,05,07,09,09,10.20
2010,05,07,09,10,10.30
2010,05,07,09,11,10.30
2010,05,07,09,12,10.30
2010,05,07,09,13,10.30
2010,05,07,09,14,10.30
2010,05,07,09,15,10.30
2010,05,07,09,16,10.30
2010,05,07,09,17,10.30
2010,05,07,09,18,10.20
2010,05,07,09,19,10.20
2010,05,07,09,20,10.20
2010,05,07,09,21,10.30
2010,05,07,09,22,10.30
2010,05,07,09,23,10.40
2010,05,07,09,24,10.40
2010,05,07,09,25,10.40
2010,05,07,09,26,10.40
2010,05,07,09,27,10.40
2010,05,07,09,28,10.40
2010,05,07,09,29,10.50
2010,05,07,09,30,10.40
2010,05,07,09,31,10.40
2010,05,07,09,32,10.30
2010,05,07,09,33,10.20
2010,05,07,09,34,10.20
2010,05,07,09,35,10.20
2010,05,07,09,36,10.20
2010,05,07,09,37,10.20
2010,05,07,09,38,10.20
2010,05,07,09,39,10.20
2010,05,07,09,40,10.20
2010,05,07,09,41,10.20
2010,05,07,09,42,10.20
2010,05,07,09,43,10.30
2010,05,07,09,44,10.40
2010,05,07,09,45,10.40
2010,05,07,09,46,10.40
2010,05,07,09,47,10.40
2010,05,07,09,48,10.40
2010,05,07,09,49,10.50
2010,05,07,09,50,10.50
2010,05,07,09,51,10.50
2010,05,07,09,52,10.50
2010,05,07,09,53,10.50
2010,05,07,09,54,10.50
2010,05,07,09,55,10.50
2010,05,07,09,56,10.50
2010,05,07,09,57,10.50
2010,05,07,09,58,10.50
2010,05,07,09,59,10.50
2010,05,07,10,00,10.60
2010,05,07,10,01,10.60
2010,05,07,10,02,10.60
2010,05,07,10,03,10.60
2010,05,07,10,04,10.60
2010,05,07,10,05,10.70
2010,05,07,10,06,10.70
2010,05,07,10,07,10.70
2010,05,07,10,08,10.70
2010,05,07,10,09,10.70
2010,05,07,10,10,10.70
2010,05,07,10,11,10.70
2010,05,07,10,12,10.60
2010,05,07,10,13,10.60
2010,05,07,10,14,10.60
2010,05,07,10,15,10.60
2010,05,07,10,16,10.60
2010,05,07,10,17,10.60
2010,05,07,10,18,10.60
2010,05,07,10,19,10.60
2010,05,07,10,20,10.60
2010,05,07,10,21,10.60
2010,05,07,10,22,10.70
2010,05,07,10,23,10.70
2010,05,07,10,24,10.70
2010,05,07,10,25,10.70
2010,05,07,10,26,10.70
2010,05,07,10,27,10.70
2010,05,07,10,28,10.80
2010,05,07,10,29,10.80
2010,05,07,10,30,10.80
2010,05,07,10,31,10.80
2010,05,07,10,32,10.90
2010,05,07,10,33,10.90
2010,05,07,10,34,10.90
2010,05,07,10,35,10.90
2010,05,07,10,36,10.90
2010,05,07,10,37,11.00
2010,05,07,10,38,11.10
2010,05,07,10,39,11.10
2010,05,07,10,40,11.20
2010,05,07,10,41,11.20
2010,05,07,10,42,11.30
2010,05,07,10,43,11.30
2010,05,07,10,44,11.30
2010,05,07,10,45,11.20
2010,05,07,10,46,11.20
2010,05,07,10,47,11.10
2010,05,07,10,48,11.10
2010,05,07,10,49,11.20
2010,05,07,10,50,11.20
2010,05,07,10,51,11.30
2010,05,07,10,52,11.30
2010,05,07,10,53,11.40
2010,05,07,10,54,11.50
2010,05,07,10,55,11.50
2010,05,07,10,56,11.50
2010,05,07,10,57,11.50
2010,05,07,10,58,11.50
2010,05,07,10,59,11.40
2010,05,07,11,00,11.50
2010,05,07,11,01,11.50
2010,05,07,11,02,11.60
2010,05,07,11,03,11.60
2010,05,07,11,04,11.70
2010,05,07,11,05,11.60
2010,05,07,11,06,11.60
2010,05,07,11,07,11.60
2010,05,07,11,08,11.60
2010,05,07,11,09,11.60
2010,05,07,11,10,11.60
2010,05,07,11,11,11.70
2010,05,07,11,12,11.70
2010,05,07,11,13,11.70
2010,05,07,11,14,11.80
2010,05,07,11,15,11.80
2010,05,07,11,16,11.90
2010,05,07,11,17,11.90
2010,05,07,11,18,11.90
2010,05,07,11,19,11.90
2010,05,07,11,20,12.00
2010,05,07,11,21,12.10
2010,05,07,11,22,12.10
2010,05,07,11,23,12.20
2010,05,07,11,24,12.20
2010,05,07,11,25,12.20
2010,05,07,11,26,12.20
2010,05,07,11,27,12.10
2010,05,07,11,28,12.10
2010,05,07,11,29,12.10
2010,05,07,11,30,12.10
2010,05,07,11,31,12.00
2010,05,07,11,32,12.00
2010,05,07,11,33,12.00
2010,05,07,11,34,12.00
2010,05,07,11,35,12.10
2010,05,07,11,36,12.20
2010,05,07,11,37,12.20
2010,05,07,11,38,12.20
2010,05,07,11,39,12.20
2010,05,07,11,40,12.10
2010,05,07,11,41,12.10
2010,05,07,11,42,12.10
2010,05,07,11,43,12.00
2010,05,07,11,44,12.10
2010,05,07,11,45,12.10
2010,05,07,11,46,12.10
2010,05,07,11,47,12.10
2010,05,07,11,48,12.10
2010,05,07,11,49,12.10
2010,05,07,11,50,12.10
2010,05,07,11,51,12.00
2010,05,07,11,52,12.00
2010,05,07,11,53,11.90
2010,05,07,11,54,11.90
2010,05,07,11,55,11.80
2010,05,07,11,56,11.80
2010,05,07,11,57,11.90
2010,05,07,11,58,12.00
2010,05,07,11,59,12.10
2010,05,07,12,00,12.10
2010,05,07,12,01,12.10
2010,05,07,12,02,12.10
2010,05,07,12,03,12.10
2010,05,07,12,04,12.00
2010,05,07,12,05,12.00
2010,05,07,12,06,11.90
2010,05,07,12,07,12.00
2010,05,07,12,08,12.00
2010,05,07,12,09,12.10
2010,05,07,12,10,12.20
2010,05,07,12,11,12.20
2010,05,07,12,12,12.20
2010,05,07,12,13,12.30
2010,05,07,12,14,12.30
2010,05,07,12,15,12.30
2010,05,07,12,16,12.20
2010,05,07,12,17,12.30
2010,05,07,12,18,12.40
2010,05,07,12,19,12.40
2010,05,07,12,20,12.40
2010,05,07,12,21,12.40
2010,05,07,12,22,12.40
2010,05,07,12,23,12.50
2010,05,07,12,24,12.60
2010,05,07,12,25,12.70
2010,05,07,12,26,12.80
2010,05,07,12,27,12.90
2010,05,07,12,28,12.90
2010,05,07,12,29,12.90
2010,05,07,12,30,13.00
2010,05,07,12,31,13.00
2010,05,07,12,32,12.90
2010,05,07,12,33,12.80
2010,05,07,12,34,12.80
2010,05,07,12,35,12.70
2010,05,07,12,36,12.70
2010,05,07,12,37,12.70
2010,05,07,12,38,12.70
2010,05,07,12,39,12.70
2010,05,07,12,40,12.70
2010,05,07,12,41,12.70
2010,05,07,12,42,12.80
2010,05,07,12,43,12.80
2010,05,07,12,44,12.90
2010,05,07,12,45,13.00
2010,05,07,12,46,13.00
2010,05,07,12,47,13.10
2010,05,07,12,48,13.00
2010,05,07,12,49,13.00
2010,05,07,12,50,12.90
2010,05,07,12,51,12.90
2010,05,07,12,52,12.90
2010,05,07,12,53,12.90
2010,05,07,12,54,12.90
2010,05,07,12,55,12.90
2010,05,07,12,56,12.90
2010,05,07,12,57,12.80
2010,05,07,12,58,12.90
2010,05,07,12,59,13.00
2010,05,07,13,00,13.10
2010,05,07,13,01,13.10
2010,05,07,13,02,13.10
2010,05,07,13,03,13.10
2010,05,07,13,04,13.20
2010,05,07,13,05,13.10
2010,05,07,13,06,13.00
2010,05,07,13,07,12.90
2010,05,07,13,08,12.80
2010,05,07,13,09,12.70
2010,05,07,13,10,12.70
2010,05,07,13,11,12.80
2010,05,07,13,12,13.00
2010,05,07,13,13,13.10
2010,05,07,13,14,13.20
2010,05,07,13,15,13.30
2010,05,07,13,16,13.40
2010,05,07,13,17,13.40
2010,05,07,13,18,13.50
2010,05,07,13,19,13.50
2010,05,07,13,20,13.50
2010,05,07,13,21,13.50
2010,05,07,13,22,13.40
2010,05,07,13,23,13.40
2010,05,07,13,24,13.40
2010,05,07,13,25,13.30
2010,05,07,13,26,13.20
2010,05,07,13,27,13.20
2010,05,07,13,28,13.20
2010,05,07,13,29,13.30
2010,05,07,13,30,13.30
2010,05,07,13,31,13.30
2010,05,07,13,32,13.30
2010,05,07,13,33,13.30
2010,05,07,13,34,13.30
2010,05,07,13,35,13.40
2010,05,07,13,36,13.50
2010,05,07,13,37,13.60
2010,05,07,13,38,13.60
2010,05,07,13,39,13.60
2010,05,07,13,40,13.60
2010,05,07,13,41,13.70
2010,05,07,13,42,13.70
2010,05,07,13,43,13.60
2010,05,07,13,44,13.50
2010,05,07,13,45,13.50
2010,05,07,13,46,13.50
2010,05,07,13,47,13.40
2010,05,07,13,48,13.40
2010,05,07,13,49,13.30
2010,05,07,13,50,13.30
2010,05,07,13,51,13.40
2010,05,07,13,52,13.50
2010,05,07,13,53,13.60
2010,05,07,13,54,13.70
2010,05,07,13,55,13.70
2010,05,07,13,56,13.70
2010,05,07,13,57,13.70
2010,05,07,13,58,13.80
2010,05,07,13,59,13.90
2010,05,07,14,00,13.90
2010,05,07,14,01,13.90
2010,05,07,14,02,13.80
2010,05,07,14,03,13.70
2010,05,07,14,04,13.60
2010,05,07,14,05,13.60
2010,05,07,14,06,13.70
2010,05,07,14,07,13.80
2010,05,07,14,08,13.90
2010,05,07,14,09,14.00
2010,05,07,14,10,14.10
2010,05,07,14,11,14.10
2010,05,07,14,12,14.20
2010,05,07,14,13,14.20
2010,05,07,14,14,14.20
2010,05,07,14,15,14.20
2010,05,07,14,16,14.20
2010,05,07,14,17,14.10
2010,05,07,14,18,14.00
2010,05,07,14,19,13.90
2010,05,07,14,20,13.90
2010,05,07,14,21,14.00
2010,05,07,14,22,14.00
2010,05,07,14,23,14.10
2010,05,07,14,24,14.20
2010,05,07,14,25,14.30
2010,05,07,14,26,14.40
2010,05,07,14,27,14.50
2010,05,07,14,28,14.60
2010,05,07,14,29,14.70
2010,05,07,14,30,14.80
2010,05,07,14,31,15.00
2010,05,07,14,32,15.10
2010,05,07,14,33,15.30
2010,05,07,14,34,15.30
2010,05,07,14,35,15.40
2010,05,07,14,36,15.40
2010,05,07,14,37,15.40
2010,05,07,14,38,15.30
2010,05,07,14,39,15.20
2010,05,07,14,40,15.10
2010,05,07,14,41,15.00
2010,05,07,14,42,15.00
2010,05,07,14,43,15.00
2010,05,07,14,44,14.90
2010,05,07,14,45,14.90
2010,05,07,14,46,14.90
2010,05,07,14,47,15.00
2010,05,07,14,48,15.00
2010,05,07,14,49,14.90
2010,05,07,14,50,14.90
2010,05,07,14,51,14.90
2010,05,07,14,52,15.00
2010,05,07,14,53,15.00
2010,05,07,14,54,15.10
2010,05,07,14,55,15.10
2010,05,07,14,56,15.00
2010,05,07,14,57,15.00
2010,05,07,14,58,14.90
2010,05,07,14,59,14.90
2010,05,07,15,00,14.80
2010,05,07,15,01,14.80
2010,05,07,15,02,14.90
2010,05,07,15,03,14.90
2010,05,07,15,04,14.90
2010,05,07,15,05,14.90
2010,05,07,15,06,14.90
2010,05,07,15,07,14.80
2010,05,07,15,08,14.90
2010,05,07,15,09,15.00
2010,05,07,15,10,15.10
2010,05,07,15,11,15.10
2010,05,07,15,12,15.10
2010,05,07,15,13,15.10
2010,05,07,15,14,15.10
2010,05,07,15,15,15.10
2010,05,07,15,16,15.10
2010,05,07,15,17,15.10
2010,05,07,15,18,15.20
2010,05,07,15,19,15.30
2010,05,07,15,20,15.40
2010,05,07,15,21,15.50
2010,05,07,15,22,15.50
2010,05,07,15,23,15.40
2010,05,07,15,24,15.30
2010,05,07,15,25,15.20
2010,05,07,15,26,15.10
2010,05,07,15,27,15.00
2010,05,07,15,28,14.90
2010,05,07,15,29,14.90
2010,05,07,15,30,14.90
2010,05,07,15,31,14.80
2010,05,07,15,32,14.80
2010,05,07,15,33,14.90
2010,05,07,15,34,15.00
2010,05,07,15,35,15.00
2010,05,07,15,36,15.00
2010,05,07,15,37,15.00
2010,05,07,15,38,14.90
2010,05,07,15,39,14.80
2010,05,07,15,40,14.80
2010,05,07,15,41,14.80
2010,05,07,15,42,14.80
2010,05,07,15,43,14.80
2010,05,07,15,44,14.80
2010,05,07,15,45,14.80
2010,05,07,15,46,14.90
2010,05,07,15,47,14.90
2010,05,07,15,48,14.90
2010,05,07,15,49,14.80
2010,05,07,15,50,14.80
2010,05,07,15,51,14.90
2010,05,07,15,52,14.90
2010,05,07,15,53,15.00
2010,05,07,15,54,15.10
2010,05,07,15,55,15.20
2010,05,07,15,56,15.20
2010,05,07,15,57,15.20
2010,05,07,15,58,15.20
2010,05,07,15,59,15.20
2010,05,07,16,00,15.20
2010,05,07,16,01,15.10
2010,05,07,16,02,15.10
2010,05,07,16,03,15.20
2010,05,07,16,04,15.20
2010,05,07,16,05,15.30
2010,05,07,16,06,15.30
2010,05,07,16,07,15.30
2010,05,07,16,08,15.30
2010,05,07,16,09,15.30
2010,05,07,16,10,15.30
2010,05,07,16,11,15.30
2010,05,07,16,12,15.30
2010,05,07,16,13,15.30
2010,05,07,16,14,15.30
2010,05,07,16,15,15.20
2010,05,07,16,16,15.20
2010,05,07,16,17,15.20
2010,05,07,16,18,15.20
2010,05,07,16,19,15.10
2010,05,07,16,20,15.10
2010,05,07,16,21,15.10
2010,05,07,16,22,15.20
2010,05,07,16,23,15.20
2010,05,07,16,24,15.30
2010,05,07,16,25,15.30
2010,05,07,16,26,15.40
2010,05,07,16,27,15.40
2010,05,07,16,28,15.30
2010,05,07,16,29,15.20
2010,05,07,16,30,15.10
2010,05,07,16,31,15.00
2010,05,07,16,32,15.00
2010,05,07,16,33,14.90
2010,05,07,16,34,15.00
2010,05,07,16,35,15.00
2010,05,07,16,36,15.00
2010,05,07,16,37,15.10
2010,05,07,16,38,15.10
2010,05,07,16,39,15.10
2010,05,07,16,40,15.10
2010,05,07,16,41,14.90
2010,05,07,16,42,14.80
2010,05,07,16,43,14.70
2010,05,07,16,44,14.70
2010,05,07,16,45,14.70
2010,05,07,16,46,14.70
2010,05,07,16,47,14.80
2010,05,07,16,48,14.90
2010,05,07,16,49,15.00
2010,05,07,16,50,15.10
2010,05,07,16,51,15.20
2010,05,07,16,52,15.30
2010,05,07,16,53,15.40
2010,05,07,16,54,15.40
2010,05,07,16,55,15.30
2010,05,07,16,56,15.30
2010,05,07,16,57,15.20
2010,05,07,16,58,15.20
2010,05,07,16,59,15.20
2010,05,07,17,00,15.20
2010,05,07,17,01,15.20
2010,05,07,17,02,15.20
2010,05,07,17,03,15.10
2010,05,07,17,04,15.10
2010,05,07,17,05,15.20
2010,05,07,17,06,15.20
2010,05,07,17,07,15.30
2010,05,07,17,08,15.40
2010,05,07,17,09,15.40
2010,05,07,17,10,15.30
2010,05,07,17,11,15.30
2010,05,07,17,12,15.30
2010,05,07,17,13,15.30
2010,05,07,17,14,15.30
2010,05,07,17,15,15.30
2010,05,07,17,16,15.30
2010,05,07,17,17,15.30
2010,05,07,17,18,15.30
2010,05,07,17,19,15.20
2010,05,07,17,20,15.20
2010,05,07,17,21,15.20
2010,05,07,17,22,15.20
2010,05,07,17,23,15.20
2010,05,07,17,24,15.20
2010,05,07,17,25,15.20
2010,05,07,17,26,15.30
2010,05,07,17,27,15.30
2010,05,07,17,28,15.40
2010,05,07,17,29,15.40
2010,05,07,17,30,15.40
2010,05,07,17,31,15.50
2010,05,07,17,32,15.40
2010,05,07,17,33,15.40
2010,05,07,17,34,15.40
2010,05,07,17,35,15.40
2010,05,07,17,36,15.40
2010,05,07,17,37,15.30
2010,05,07,17,38,15.30
2010,05,07,17,39,15.20
2010,05,07,17,40,15.20
2010,05,07,17,41,15.20
2010,05,07,17,42,15.20